TimeEST,TemperatureF,Dew PointF,Humidity,Sea Level PressureIn,VisibilityMPH,Wind Direction,Wind SpeedMPH,Gust SpeedMPH,PrecipitationIn,Events,Conditions,WindDirDegrees,DateUTC
12:54 AM,19.0,14.0,81,30.02,10.0,West,8.1,-,N/A,,Clear,260,2013-12-11 05:54:00
1:54 AM,16.0,12.9,88,30.04,10.0,WSW,8.1,-,N/A,,Clear,240,2013-12-11 06:54:00
2:54 AM,18.0,14.0,84,30.07,10.0,WSW,10.4,-,N/A,,Scattered Clouds,250,2013-12-11 07:54:00
3:54 AM,19.0,12.9,77,30.08,10.0,WSW,11.5,-,N/A,,Clear,250,2013-12-11 08:54:00
4:54 AM,19.0,12.9,77,30.10,10.0,WSW,17.3,-,N/A,,Clear,250,2013-12-11 09:54:00
5:54 AM,18.0,12.0,78,30.13,10.0,WSW,13.8,-,N/A,,Clear,250,2013-12-11 10:54:00
6:54 AM,18.0,12.0,78,30.16,10.0,West,15.0,-,N/A,,Clear,260,2013-12-11 11:54:00
7:54 AM,19.9,10.9,68,30.18,10.0,West,19.6,27.6,N/A,,Clear,260,2013-12-11 12:54:00
8:54 AM,19.9,12.9,74,30.20,10.0,WSW,16.1,-,N/A,,Clear,250,2013-12-11 13:54:00
9:54 AM,21.9,14.0,72,30.21,10.0,WSW,17.3,-,N/A,,Clear,250,2013-12-11 14:54:00
10:54 AM,24.1,15.1,69,30.18,10.0,West,15.0,25.3,N/A,,Clear,260,2013-12-11 15:54:00
11:54 AM,24.1,16.0,71,30.16,10.0,SW,17.3,-,N/A,,Partly Cloudy,230,2013-12-11 16:54:00
12:54 PM,24.1,16.0,71,30.15,10.0,WSW,17.3,-,N/A,,Overcast,240,2013-12-11 17:54:00
1:54 PM,23.0,17.1,78,30.14,10.0,WSW,17.3,-,0.00,,Overcast,240,2013-12-11 18:54:00
2:23 PM,24.1,17.1,75,30.08,10.0,WSW,12.7,-,N/A,,Mostly Cloudy,240,2013-12-11 19:23:00
2:45 PM,23.0,17.1,78,30.08,10.0,SW,16.1,-,N/A,,Mostly Cloudy,230,2013-12-11 19:45:00
2:54 PM,24.1,17.1,75,30.13,10.0,WSW,13.8,-,N/A,,Scattered Clouds,240,2013-12-11 19:54:00
3:54 PM,23.0,16.0,74,30.14,10.0,WSW,13.8,-,N/A,,Partly Cloudy,240,2013-12-11 20:54:00
4:54 PM,21.9,15.1,75,30.14,10.0,WSW,12.7,-,N/A,,Mostly Cloudy,240,2013-12-11 21:54:00
5:54 PM,21.0,16.0,81,30.15,10.0,WSW,10.4,-,N/A,,Overcast,240,2013-12-11 22:54:00
6:54 PM,21.0,16.0,81,30.14,10.0,WSW,10.4,-,N/A,,Overcast,240,2013-12-11 23:54:00
7:54 PM,19.9,15.1,81,30.15,10.0,WSW,11.5,-,N/A,,Clear,250,2013-12-12 00:54:00
8:54 PM,21.0,15.1,78,30.14,10.0,WSW,11.5,-,N/A,,Clear,240,2013-12-12 01:54:00
9:54 PM,21.0,14.0,74,30.13,10.0,WSW,16.1,-,N/A,,Clear,250,2013-12-12 02:54:00
10:54 PM,21.0,14.0,74,30.13,10.0,West,10.4,-,N/A,,Clear,260,2013-12-12 03:54:00
11:54 PM,19.9,14.0,78,30.14,10.0,West,16.1,-,N/A,,Clear,280,2013-12-12 04:54:00